User: anonymous
Location: Sunrise Point
(46.9200°N, 121.5900°W)
Time: 21:13:42
(UTC-07:00)
Language:

Cosmos 2058 - Orbit

View from above orbital plane
View from above orbital plane
View from above satellite
View from above satellite

Ground track
Ground track

The orbit data is extracted from the following two-line orbital elements,

1 20465U 90010A   14208.42898564  .00000933  00000-0  82992-4 0  1764
2 20465 082.4923 181.5359 0015137 242.0356 117.9334 14.94915642327429
Epoch (UTC): 27 July 2014 10:17:44
Eccentricity: 0.0015137
inclination: 82.4923°
perigee height: 572 km
apogee height: 593 km
right ascension of ascending node: 181.5359°
argument of perigee: 242.0356°
revolutions per day: 14.94915642
mean anomaly at epoch: 117.9334°
orbit number at epoch: 32742

The dashed part of the orbit path shows where the satellite is in the earth's shadow,  

DLR